Weather History for Terre Haute, IN

Change the Weather History Date:

Tuesday, October 1, 2013

  Actual Average Record
Temperature  
Mean Temperature 68 °F 60 °F  
Max Temperature 81 °F 72 °F 90 °F (1971)
Min Temperature 54 °F 47 °F 33 °F (1958)
Degree Days  
Heating Degree Days 0 7  
Month to date heating degree days 0 7  
Since 1 July heating degree days 63 85  
Cooling Degree Days 3 1  
Month to date cooling degree days 3 1  
Year to date cooling degree days 1026 979  
Growing Degree Days 16 (Base 50)    
Moisture  
Dew Point 60 °F    
Average Humidity 77    
Maximum Humidity 100    
Minimum Humidity 54    
Precipitation  
Precipitation 0.00 in 0.11 in 2.00 in (1977)
Month to date precipitation 0.00 0.11  
Year to date precipitation 34.23 34.81  
Sea Level Pressure  
Sea Level Pressure 30.02 in    
Wind  
Wind Speed 3 mph (SW)    
Max Wind Speed 13 mph    
Max Gust Speed 17 mph    
Visibility 5 miles    
Events Fog    
T = Trace of Precipitation, MM = Missing Value Source: NWS Daily Summary

Daily Weather History Graph

Daily Weather History Graph

Search for Another Location

Airport:

Trip Planner

Search our weather history database for the weather conditions in past years. The results will help you decide how hot, cold, wet, or windy it might be!

Date:

Astronomy

Oct. 01, 2013 Rise Set
Actual Time 7:45 AM EDT 7:31 PM EDT
Civil Twilight 7:18 AM EDT 7:58 PM EDT
Nautical Twilight 6:47 AM EDT 8:29 PM EDT
Astronomical Twilight 6:16 AM EDT 9:00 PM EDT
Moon 4:20 AM EDT (10/1) 5:34 PM EDT (10/1)
Length of Visible Light 12h 39m
Length of Day
11h 45m
Waning Crescent, 12% of the Moon is Illuminated
Oct 1
Waning Crescent
Oct 4
New
Oct 11
First Quarter
Oct 18
Full
Oct 26
Last Quarter

Hourly Weather History & Observations

Time (EDT) Temp. Dew Point Humidity Pressure Visibility Wind Dir Wind Speed Gust Speed Precip Events Conditions
12:53 AM 60.1 °F 57.9 °F 93% 29.99 in 5.0 mi Calm Calm - N/A   Clear
1:06 AM 59.0 °F 57.2 °F 94% 29.99 in 2.0 mi Calm Calm - N/A   Clear
1:16 AM 59.0 °F 57.2 °F 94% 29.99 in 3.0 mi Calm Calm - N/A   Clear
1:53 AM 59.0 °F 57.0 °F 93% 29.99 in 2.5 mi Calm Calm - N/A   Partly Cloudy
2:02 AM 57.2 °F 57.2 °F 100% 29.99 in 1.0 mi Calm Calm - N/A   Partly Cloudy
2:10 AM 57.2 °F 57.2 °F 100% 29.99 in 0.5 mi Calm Calm - N/A Fog Fog
2:20 AM 59.0 °F 57.2 °F 94% 29.99 in 1.2 mi Calm Calm - N/A   Clear
2:28 AM 59.0 °F 57.2 °F 94% 29.99 in 3.0 mi Calm Calm - N/A   Clear
2:39 AM 57.2 °F 57.2 °F 100% 30.00 in 2.0 mi Calm Calm - N/A   Clear
2:44 AM 57.2 °F 57.2 °F 100% 30.00 in 0.8 mi Calm Calm - N/A   Mist
2:53 AM 57.0 °F 57.0 °F 100% 29.99 in 0.2 mi Calm Calm - N/A Fog Fog
3:11 AM 57.2 °F 55.4 °F 94% 30.00 in 2.0 mi Calm Calm - N/A   Partly Cloudy
3:53 AM 54.0 °F 54.0 °F 100% 29.99 in 2.0 mi Calm Calm - N/A   Partly Cloudy
4:00 AM 55.4 °F 55.4 °F 100% 30.00 in 1.0 mi Calm Calm - N/A   Partly Cloudy
4:42 AM 55.4 °F 53.6 °F 94% 30.00 in 0.2 mi Calm Calm - N/A Fog Fog
4:53 AM 55.0 °F 54.0 °F 96% 29.99 in 0.2 mi Calm Calm - N/A Fog Fog
5:17 AM 55.4 °F 55.4 °F 100% 30.01 in 0.2 mi Calm Calm - 0.01 in Fog Fog
5:44 AM 59.0 °F 57.2 °F 94% 30.02 in 1.0 mi Calm Calm - 0.01 in   Mist
5:53 AM 60.1 °F 57.9 °F 93% 30.01 in 2.0 mi Calm Calm - 0.01 in   Overcast
6:06 AM 60.8 °F 59.0 °F 94% 30.02 in 0.5 mi Calm Calm - N/A Fog Fog
6:16 AM 60.8 °F 60.8 °F 100% 30.02 in 0.5 mi Calm Calm - N/A Fog Fog
6:53 AM 62.1 °F 60.1 °F 93% 30.03 in 5.0 mi Calm Calm - N/A   Overcast
7:43 AM 62.6 °F 60.8 °F 94% 30.05 in 6.0 mi SSW 4.6 mph - N/A   Overcast
7:53 AM 62.1 °F 61.0 °F 96% 30.05 in 6.0 mi SSW 4.6 mph - N/A   Overcast
8:04 AM 62.6 °F 60.8 °F 94% 30.06 in 6.0 mi SSW 3.5 mph - N/A   Overcast
8:53 AM 64.0 °F 61.0 °F 90% 30.06 in 7.0 mi SW 6.9 mph - N/A   Overcast
9:53 AM 64.9 °F 62.1 °F 90% 30.06 in 10.0 mi SW 4.6 mph - N/A   Overcast
10:53 AM 66.0 °F 62.1 °F 87% 30.07 in 10.0 mi WSW 5.8 mph - N/A   Overcast
11:53 AM 68.0 °F 62.1 °F 81% 30.06 in 10.0 mi SW 9.2 mph - N/A   Overcast
12:21 PM 69.8 °F 62.6 °F 78% 30.06 in 10.0 mi SW 9.2 mph - N/A   Overcast
12:53 PM 72.0 °F 62.1 °F 71% 30.05 in 10.0 mi SW 8.1 mph - N/A   Overcast
1:14 PM 73.4 °F 62.6 °F 69% 30.04 in 10.0 mi SW 9.2 mph - N/A   Scattered Clouds
1:53 PM 75.9 °F 62.1 °F 62% 30.03 in 10.0 mi SSW 6.9 mph - N/A   Partly Cloudy
2:53 PM 75.9 °F 62.1 °F 62% 30.01 in 10.0 mi SSW 5.8 mph - N/A   Scattered Clouds
3:53 PM 78.1 °F 61.0 °F 56% 30.00 in 10.0 mi Variable 3.5 mph - N/A   Partly Cloudy
4:53 PM 79.0 °F 61.0 °F 54% 29.99 in 10.0 mi SW 6.9 mph 17.3 mph N/A   Scattered Clouds
5:53 PM 78.1 °F 63.0 °F 60% 29.99 in 10.0 mi SSW 6.9 mph - N/A   Scattered Clouds
6:53 PM 75.9 °F 64.0 °F 67% 30.00 in 10.0 mi SW 4.6 mph - N/A   Mostly Cloudy
7:53 PM 71.1 °F 64.0 °F 78% 30.00 in 10.0 mi South 3.5 mph - N/A   Partly Cloudy
8:53 PM 68.0 °F 64.0 °F 87% 30.01 in 10.0 mi Calm Calm - N/A   Clear
9:53 PM 64.9 °F 63.0 °F 93% 30.02 in 8.0 mi Calm Calm - N/A   Clear
10:53 PM 63.0 °F 62.1 °F 97% 30.03 in 4.0 mi Calm Calm - N/A   Clear
11:00 PM 62.6 °F 60.8 °F 94% 30.03 in 1.5 mi Calm Calm - N/A   Partly Cloudy
11:24 PM 62.6 °F 60.8 °F 94% 30.03 in 3.0 mi Calm Calm - N/A   Clear
11:53 PM 63.0 °F 61.0 °F 93% 30.03 in 8.0 mi Calm Calm - N/A   Clear